Regional Weather Roundup
Issued by NWS Bismarck, ND

Home | Current Version | Previous Version | Text Only | Print | Product List | Glossary On
Versions: 1 2 3 4 5 6 7 8 9 10 11 12 13 14 15 16 17 18 19 20 21 22 23 24 25 26 27 28 29 30 31 32 33 34 35 36 37 38 39 40 41 42 43 44 45 46 47 48 49 50
000
ASUS43 KBIS 171410
RWRBIS

NWR BROADCAST TEXT
NATIONAL WEATHER SERVICE BISMARCK ND
800 AM CST FRI NOV 17 2017

NOTE: "FAIR" INDICATES FEW OR NO CLOUDS BELOW 12,000 FEET WITH NO
SIGNIFICANT WEATHER AND/OR OBSTRUCTIONS TO VISIBILITY.


CITY           SKY/WX    TMP DP  RH WIND       PRES   REMARKS
WILLISTON      PTCLDY    13   9  84 SW3       29.69R
MINOT          CLEAR     16   9  74 NW9       29.68R WCI   4
MINOT AFB      CLEAR     11   6  82 W5        29.69R WCI   3
BISMARCK       CLOUDY    34  27  75 N9        29.68R
DICKINSON      CLOUDY    26  21  81 W7        29.64R WCI  18
GARRISON         N/A     20  15  81 VRB3      29.68R
HETTINGER ARPT CLOUDY    31  25  78 CALM      29.66S
JAMESTOWN      CLOUDY    32  28  85 N13       29.63R
CARRINGTON     FAIR      25  19  80 NW17      29.67R WCI  11
HAZEN          FAIR      23  21  93 CALM      29.70R
LINTON           N/A     30  25  80 NW6       29.68R
MANDAN         PTSUNNY   30  27  86 NW8       29.67R
OAKES            N/A     30  28  93 MISG      29.61F
RUGBY          FAIR      12   9  85 W8        29.67R WCI   1
STANLEY        FAIR      12   9  85 CALM      29.68R
TIOGA          FAIR      10   9  92 NW8       29.67R WCI  -1
WATFORD CITY   FAIR      12  10  92 CALM      29.68S
$$

CITY           SKY/WX    TMP DP  RH WIND       PRES   REMARKS
GRAND FORKS    CLOUDY    32  29  88 W8        29.61F
GRAND FORKS AF CLOUDY    31  28  87 W7        29.61F
DEVILS LAKE    CLOUDY    20  15  81 W15       29.65R WCI   6
FARGO          CLOUDY    34  29  82 SW6       29.63S
CANDO          FAIR      16  14  93 NW15      29.66R WCI   1
CAVALIER       FAIR      25  18  74 NW10      29.63R WCI  15
GRAFTON        FAIR      28  25  86 W13       29.64S WCI  18
GWINNER          N/A     32  28  86 CALM      29.62S
LANGDON        FAIR      16  14  93 NW17G24   29.60R WCI   0
ROLLA          FAIR      10   9  92 CALM      29.62R
WALHALLA       FAIR      21  14  73 NW15      29.64R WCI   8
$$

CITY           SKY/WX    TMP DP  RH WIND       PRES   REMARKS
ABERDEEN       CLOUDY    33  29  85 E6        29.61F
MOBRIDGE       CLOUDY    36  32  85 CALM      29.64R
BUFFALO          N/A     35  31  85 S5        29.58F
RAPID CITY     CLOUDY    35  33  92 S5        29.65F
GLASGOW        PTCLDY    15  12  88 E8        29.61F WCI   4
SIDNEY         PTCLDY    15  12  88 CALM      29.68R
WOLF POINT     CLOUDY    13   8  81 E5        29.66R WCI   5
GLENDIVE       PTCLDY    24  21  88 CALM      29.65R
MILES CITY     PTCLDY    33  29  85 SW5       29.64S
BAKER          PTCLDY    29  27  92 S6        29.65S
$$

CITY           SKY/WX    TMP DP  RH WIND       PRES   REMARKS
BILLINGS       MOCLDY    33  29  85 N3        29.63R
GREAT FALLS    PTCLDY    31  20  63 SW10      29.57S
REGINA         FLURRIES   9   5  85 W8        29.63S WCI  -4
ESTEVAN        LGT SNOW  10   7  85 NW9       29.65S FOG     WCI  -2
$$




USA.gov is the U.S. government's official web portal to all federal, state and local government web resources and services.